Flag for Canada Weather past 2 weeks in Miramichi, New Brunswick, Canada

Now
70 °F

Overcast.


Feels Like: 70 °F
Forecast: N/A
Wind: 3 mph from Northeast

Location: Bathurst Airport

Current Time: Jul 30, 2014 at 6:53:43 PM

Latest Report: Jul 30, 2014 at 6:00 PM


Visibility: 15 mi

Pressure: 30.03 "Hg

Humidity: 78%

Dew point: 63 °F

Location of MiramichiLocation

Historic Weather in Miramichi — Graph

°F

Miramichi temperature yesterday

Maximum temperature yesterday: 75 °F (at 5:00 PM)
Minimum temperature yesterday: 63 °F (at 10:00 PM)
Average temperature yesterday: 70 °F

Past Weeks' High & Low Weather Summary

 TemperatureHumidityPressure
High90 °F (Jul 23, 2:00 PM)100% (Jul 16, 8:51 AM)30.25 "Hg (Jul 16, 8:51 AM)
Low48 °F (Jul 25, 5:00 AM)32% (Jul 25, 2:00 PM)29.51 "Hg (Jul 29, 6:00 AM)
Average69 °F75%29.86 "Hg
* Reported Jul 15 5:00 PM — Jul 30 5:00 PM, Miramichi, Weather by CustomWeather, © 2014

Note: Actual official high and low records may vary slightly from our data, if they occured in-between our weather recording intervals... More about our weather records

Advertising

Miramichi weather history for previous 24 hours

 ConditionsComfort  
Time TempWeatherWind HumidityBarometerVisibility
5:00 PM
Jul 30
72 °FCloudy.6 mph69%30.03 "Hg15 mi
4:00 PM70 °FBroken clouds.8 mph69%30.03 "Hg15 mi
3:00 PM70 °FPartly sunny.6 mph69%30.04 "Hg15 mi
2:00 PM70 °FPartly sunny.8 mph69%30.04 "Hg15 mi
1:00 PM70 °FBroken clouds.7 mph73%30.05 "Hg15 mi
12:00 PM70 °FBroken clouds.5 mph69%30.05 "Hg15 mi
11:00 AM68 °FPartly sunny.6 mph69%30.05 "Hg15 mi
10:00 AM66 °FScattered clouds.5 mph78%30.05 "Hg15 mi
9:00 AM61 °FPassing clouds.No wind83%30.05 "Hg15 mi
8:00 AM55 °FPassing clouds.2 mph94%30.03 "Hg15 mi
7:00 AM52 °FPassing clouds.No wind100%30.02 "Hg15 mi
6:00 AM52 °FPassing clouds.2 mph100%30.00 "Hg15 mi
5:00 AM54 °FPassing clouds.No wind94%29.98 "Hg15 mi
4:00 AM54 °FClear.2 mph100%29.96 "Hg15 mi
3:00 AM55 °FPassing clouds.3 mph94%29.96 "Hg15 mi
2:00 AM59 °FClear.9 mph88%29.93 "Hg15 mi
1:00 AM61 °FClear.6 mph83%29.91 "Hg15 mi
12:00 AM61 °FClear.7 mph83%29.89 "Hg15 mi
11:00 PM
Jul 29
63 °FClear.5 mph77%29.88 "Hg15 mi
10:00 PM63 °FPassing clouds.8 mph83%29.86 "Hg15 mi
9:00 PM68 °FBroken clouds.8 mph69%29.84 "Hg15 mi
8:00 PM70 °FBroken clouds.6 mph69%29.81 "Hg15 mi
7:00 PM73 °FScattered clouds.13 mph61%29.77 "Hg15 mi
6:00 PM75 °FScattered clouds.13 mph54%29.73 "Hg15 mi
Weather by CustomWeather, © 2014

See weather overviewHow to use our weather pages